User: anonymous   Login
Location: Harbor Island
(32.3990°N, 80.4435°W)
Time: 18:04:21
(UTC-04:00)
Language:

Cosmos 1455 - Orbit

View from above orbital plane
View from above orbital plane
View from above satellite
View from above satellite

Ground track
Ground track

The orbit data is extracted from the following two-line orbital elements,

1 14032U 83037A   16178.81653992  .00000863  00000-0  42734-4 0  9998
2 14032  82.5177  77.9756 0019577  74.6930 285.6465 15.16276131807511
Epoch (UTC): 26 June 2016 19:35:49
Eccentricity: 0.0019577
inclination: 82.5177°
perigee height: 503 km
apogee height: 530 km
right ascension of ascending node: 77.9756°
argument of perigee: 74.6930°
revolutions per day: 15.16276131
mean anomaly at epoch: 285.6465°
orbit number at epoch: 80751

The dashed part of the orbit path shows where the satellite is in the earth's shadow,  

DLR